Location: El Mouella
(16.4949°N, 9.1594°W)
Time: 15:02:01
(UTC+00:00)

Cosmos 1943 Rocket - Pass Details

Date: 02 June 2020
Orbit: 810 x 845 km, 71.0° (Epoch: 04 July)

Event Time Altitude Azimuth Distance (km) Brightness Sun altitude
Exits shadow 21:11:20 29° 43° (NE) 1,454 3.3 -26.9°
Drops below altitude 10° 21:14:07 10° 29° (NNE) 2,411 4.6 -27.4°
Sets 21:16:36 0° 25° (NNE) 3,350 5.5 -27.9°
